RH
62 67 70 69 64 55 46 40 38 37 36 35 32 29 28 29 29 28 27 26 26 25 24 26 34 39 36 29 25 23 21 20 19 19 19 19 19 18 18 17 16 16 16 16 17 17 17 16 15 15 13 13 13 12 12 13 14 14 15 16 16 17 17 18 18 19 19 20 20 21 22 22 23 23
63 67 68 64 58 52 47 43 42 40 37 33 29 26 26 26 27 26 26 26 25 25 24 25 31 35 32 28 27 25 24 22 22 22 22 22 22 21 19 19 18 17 17 18 18 19 18 18 17 16 15 14 13 13 13 14 15 16 16 17 18 18 19 20 20 21 21 22 23 24 24 25 25 26
61 61 58 53 51 50 49 47 44 40 35 29 26 26 27 29 29 29 28 27 26 26 25 26 29 30 30 29 29 28 27 27 27 27 27 26 25 23 22 21 20 20 20 20 20 20 20 19 18 17 16 15 14 14 14 15 16 17 17 18 19 19 20 22 22 23 24 25 26 27 27 27 27 28
58 55 52 51 51 51 50 48 44 38 33 30 30 32 34 35 34 32 30 28 27 27 28 30 31 31 32 33 33 32 32 33 33 32 31 30 28 26 25 24 24 23 23 23 23 23 22 21 20 19 18 16 15 15 15 15 16 17 19 20 20 21 22 23 24 25 26 27 28 28 29 29 29 29
57 54 53 53 52 51 48 44 40 36 34 35 36 39 40 38 36 33 30 28 28 28 31 35 38 38 39 39 37 37 37 37 37 35 34 32 31 30 28 28 27 26 26 25 25 25 25 24 22 21 19 18 17 16 16 16 17 19 20 20 21 22 23 24 25 27 28 29 30 30 31 32 32 32
59 57 56 56 54 50 46 41 39 39 39 41 42 43 43 40 38 35 33 31 31 34 38 42 46 47 45 42 40 40 41 42 40 38 36 35 34 33 32 30 29 29 28 27 27 26 26 25 23 22 20 19 18 17 17 18 19 20 22 23 24 24 25 27 28 29 31 32 33 34 35 35 36 36
61 60 60 60 56 52 48 45 45 45 46 46 46 46 46 45 43 42 45 45 40 39 41 44 47 47 44 43 43 45 46 46 44 42 39 38 37 36 35 33 32 32 31 30 29 29 27 26 24 23 21 20 19 19 19 20 22 23 25 27 28 28 29 31 33 36 38 39 39 39 39 40 41 41
64 65 66 65 62 58 55 52 51 51 52 51 49 50 51 52 52 54 59 58 48 43 44 44 45 47 47 48 49 50 50 49 47 44 41 40 39 38 38 37 36 35 34 34 33 32 30 28 26 24 23 22 22 22 22 23 25 27 28 30 33 35 37 40 43 44 44 43 43 44 44 45 46 46
70 71 72 71 68 63 58 54 51 49 49 49 52 55 57 58 58 56 56 54 51 50 51 53 54 54 52 51 50 50 50 48 46 44 42 41 41 41 41 40 40 39 39 38 37 36 33 30 28 26 25 24 24 25 26 28 30 33 36 39 42 44 46 47 48 47 48 49 48 48 49 49 49 50
76 76 77 75 72 68 62 56 50 46 45 47 52 55 56 56 54 51 50 50 50 51 54 57 58 54 50 47 48 50 49 48 47 46 47 47 46 45 45 45 46 46 45 44 41 38 35 33 31 30 29 31 32 34 36 39 41 42 44 46 48 49 49 49 50 51 52 53 54 54 54 54 55 54
82 81 80 79 76 72 64 56 50 45 42 44 49 50 49 48 46 44 45 45 44 45 46 48 48 48 47 47 49 51 51 52 52 53 54 53 51 51 51 51 51 51 50 47 43 41 39 37 37 37 39 41 41 43 44 44 46 47 49 52 52 53 52 53 54 55 56 58 61 63 64 64 62 60
84 85 84 83 80 73 64 58 51 47 46 47 48 46 43 42 42 42 42 41 41 41 40 40 40 41 43 45 48 52 55 58 61 63 63 60 60 61 61 59 56 54 53 49 46 43 40 39 40 41 44 46 47 49 52 53 55 56 58 59 59 58 59 60 61 63 67 69 69 69 71 71 70 70
86 87 87 87 82 72 64 56 50 58 64 57 48 47 45 44 45 46 46 45 45 45 43 42 41 41 43 46 50 53 57 60 65 69 70 68 67 68 67 62 57 54 53 49 45 42 40 40 42 43 48 53 56 59 61 62 62 63 65 67 69 72 74 73 73 74 76 77 75 75 77 79 80 81
87 89 90 90 83 71 62 52 50 71 82 69 59 59 55 52 54 56 57 58 58 57 53 51 50 50 51 54 56 57 59 61 63 65 66 66 63 61 61 59 54 50 49 46 43 41 41 42 46 52 61 69 74 76 77 76 75 76 78 81 86 90 91 89 86 84 83 82 79 79 81 85 87 87
89 91 92 89 79 66 58 50 52 74 88 82 74 68 59 59 65 68 70 72 72 72 71 69 68 67 66 67 68 68 66 64 64 63 63 62 60 57 56 54 51 49 48 50 51 53 54 54 58 67 76 82 88 91 92 91 90 89 91 94 98 99 96 94 92 90 89 87 84 85 88 92 95 96
94 96 93 85 74 63 56 54 55 64 72 71 64 58 56 63 71 75 79 80 80 81 81 81 82 82 83 84 83 81 78 74 69 66 64 63 61 60 61 62 64 64 64 66 69 74 77 76 77 84 87 87 92 99 101 100 98 96 95 96 98 97 94 94 95 96 96 94 94 97 98 98 99 101
97 95 90 81 72 65 58 56 57 57 58 60 60 60 62 66 71 77 81 82 83 84 84 85 87 86 88 91 91 90 88 83 77 73 73 73 74 77 81 85 87 87 85 85 86 91 97 95 93 96 95 90 90 94 93 91 90 89 89 88 90 94 95 95 97 100 100 99 100 102 101 100 100 99
98 92 87 80 78 79 73 66 68 72 76 80 84 84 82 81 82 84 85 85 85 86 88 89 90 91 93 94 95 96 96 94 91 88 87 89 92 97 99 98 98 97 97 97 96 96 96 91 87 87 85 82 81 82 81 80 80 81 82 83 87 91 91 86 83 84 85 87 89 91 94 97 99 101
99 93 85 76 77 87 91 88 89 92 92 92 94 93 94 96 96 95 95 93 90 88 88 89 91 93 93 91 90 93 97 99 98 95 94 95 99 101 101 99 98 97 96 92 87 82 78 74 74 75 76 78 80 80 79 78 75 72 69 67 66 66 63 58 55 55 56 59 61 64 68 71 74 76
98 93 86 77 74 79 87 89 88 85 81 80 82 87 93 99 101 101 101 98 93 89 87 86 86 86 86 86 90 93 93 93 93 93 94 95 97 98 97 95 92 88 84 79 75 72 70 69 70 71 71 70 68 66 63 59 55 50 47 44 41 40 38 36 35 34 33 34 34 36 38 40 42 46
98 97 94 90 84 81 83 84 81 79 80 80 80 80 83 89 94 95 92 88 83 81 81 80 77 76 79 83 87 86 83 82 85 90 94 96 97 96 92 87 81 76 73 72 70 69 66 62 61 59 56 52 49 46 42 39 36 34 32 30 28 27 26 24 23 22 21 20 19 18 18 19 21 25
99 98 99 100 97 91 88 87 87 89 93 92 88 82 77 77 79 81 79 78 77 77 79 78 73 71 76 82 85 84 82 83 89 95 97 96 92 87 81 78 75 72 70 69 66 62 58 54 50 47 43 39 36 33 31 29 28 26 25 23 22 21 20 18 17 16 14 13 13 12 11 11 11 12
100 99 100 101 100 94 89 89 90 91 92 93 90 86 83 81 77 73 72 73 73 76 81 84 83 85 90 94 96 96 96 97 98 96 91 86 82 80 78 78 76 73 68 64 59 54 50 46 42 39 36 32 30 28 26 25 24 22 20 19 18 16 15 14 13 12 11 11 10 10 10 10 10 10
101 99 97 97 98 97 93 91 88 87 90 95 93 87 83 80 77 76 78 77 77 77 79 84 90 96 99 99 100 100 99 97 93 89 87 88 89 88 85 80 74 68 62 57 53 48 43 39 35 33 31 29 26 25 23 21 20 19 17 16 14 13 12 11 11 10 10 10 10 10 10 10 10 10
99 99 99 99 98 94 91 89 90 92 96 98 94 86 81 81 82 85 89 91 92 92 91 91 95 100 101 100 98 95 91 88 87 88 90 92 92 87 80 72 66 60 54 49 45 40 36 33 30 28 26 24 23 21 20 18 17 15 14 13 12 11 10 10 9 9 9 9 10 10 10 10 11 11
100 99 100 99 94 89 89 93 97 99 98 94 90 87 86 88 91 92 94 98 101 102 100 99 97 96 94 90 85 81 80 82 85 87 89 87 82 76 68 61 55 49 44 39 36 32 29 27 25 23 21 19 18 16 15 14 13 12 11 11 10 9 9 9 9 9 9 10 10 11 11 12 12 12
97 92 91 93 93 94 98 100 100 99 97 94 93 92 93 95 98 99 100 100 98 93 88 85 81 79 76 74 72 74 78 83 86 85 83 77 69 62 55 48 43 39 35 32 29 26 24 21 19 18 17 15 14 13 12 11 10 10 9 9 8 8 8 8 9 9 9 10 10 11 12 12 13 14
96 93 94 97 99 100 101 101 100 98 96 96 97 97 96 95 92 90 86 82 79 76 74 73 72 72 73 75 78 82 84 84 81 76 68 60 53 47 42 38 34 31 28 25 22 20 18 17 15 14 13 12 11 10 10 9 8 8 8 8 8 8 8 8 8 8 8 8 8 9 9 9 10 11
99 100 100 100 99 99 98 98 97 96 94 95 96 95 91 86 81 78 76 75 75 76 76 76 78 80 82 85 86 84 80 73 66 58 50 44 40 36 32 29 26 23 21 19 17 16 15 13 12 12 11 10 9 9 8 8 8 8 8 8 7 7 7 7 6 6 7 7 7 7 7 7 7 7
100 100 99 97 94 92 92 94 96 96 95 94 93 90 86 83 81 80 80 80 81 82 83 85 87 88 86 83 77 71 64 56 49 43 38 34 30 27 24 22 19 18 16 15 14 13 12 11 10 10 9 9 8 8 8 8 8 8 7 7 6 6 6 6 6 7 6 6 7 6 6 6 7 6
97 96 95 96 96 96 97 99 98 98 97 94 92 89 87 86 86 86 87 88 90 91 91 89 86 81 75 68 61 54 48 42 37 33 29 26 23 20 18 17 15 15 13 12 12 11 10 9 9 9 9 9 9 9 8 7 7 7 6 6 7 7 7 7 7 6 6 6 6 7 7 7 7 7
98 97 97 99 100 101 101 101 100 99 97 93 91 90 90 92 95 96 96 97 95 91 85 79 73 66 60 53 47 41 36 32 29 26 23 20 18 16 15 14 13 12 11 10 10 9 9 9 9 9 9 9 8 8 7 7 7 7 7 7 7 7 7 7 7 7 7 7 7 8 8 9 9 10
100 100 101 101 101 102 102 102 100 98 94 92 92 94 96 100 102 101 97 92 86 80 74 67 60 52 45 40 36 32 29 26 23 20 18 17 15 14 13 12 11 10 9 9 9 9 9 9 9 9 9 8 8 7 7 7 8 8 8 8 7 7 7 7 7 8 8 10 11 11 12 14 16 20
100 101 101 101 102 102 100 97 94 92 92 95 98 99 100 100 99 95 89 83 77 70 62 53 46 40 36 33 30 26 23 20 18 17 16 15 13 12 11 10 10 9 9 9 9 9 10 9 9 9 8 8 8 8 8 8 8 8 8 7 7 8 8 9 11 12 14 16 18 19 23 29 36 42
100 101 101 101 100 99 97 95 95 95 97 99 100 100 99 97 93 88 81 74 66 57 49 43 39 35 31 28 24 21 20 18 17 16 14 13 12 11 10 10 9 9 9 10 10 10 9 9 9 9 9 9 9 8 8 8 8 8 8 9 9 11 13 15 17 18 20 22 24 32 45 56 64 71
100 98 98 99 100 101 100 100 101 101 100 100 100 99 96 92 87 79 70 61 54 47 42 38 34 29 26 23 21 20 19 17 16 14 13 12 11 11 10 10 10 11 10 10 10 9 9 9 9 9 9 9 9 8 8 7 7 9 11 13 14 16 18 20 20 23 30 36 40 52 70 82 89 94
94 94 96 99 101 101 101 101 101 101 101 100 99 96 90 83 74 64 56 50 44 40 37 32 28 26 24 22 21 20 18 17 15 14 13 12 11 11 11 11 11 10 10 10 9 9 9 9 9 9 9 8 8 8 9 10 11 12 15 17 20 25 29 30 30 33 44 54 59 68 80 91 97 100
92 95 98 100 100 100 100 101 101 101 100 98 94 87 78 68 59 52 47 43 39 35 32 29 26 24 23 21 21 19 17 16 14 13 12 12 12 11 11 11 10 10 9 9 9 9 9 9 9 9 8 8 8 9 14 17 18 18 19 22 29 39 47 48 47 48 55 62 67 72 79 89 96 97
97 99 99 100 100 101 101 101 101 100 97 91 82 73 64 56 50 45 41 37 34 31 28 26 25 24 23 23 21 18 16 15 14 13 13 12 12 12 11 10 10 9 9 9 9 9 9 9 9 8 8 8 10 14 19 22 22 22 24 28 38 52 61 62 62 62 63 65 69 73 80 90 99 99
100 100 101 101 101 101 101 101 99 94 87 78 69 61 54 48 43 39 36 33 30 28 27 26 26 25 24 22 19 17 16 15 14 14 13 12 12 11 10 9 9 9 10 10 10 9 9 9 8 8 9 12 17 21 25 25 23 24 28 33 41 55 66 71 73 73 71 71 72 76 81 89 95 95
100 101 101 101 102 102 100 96 89 81 73 64 57 50 45 41 37 34 32 30 29 28 27 27 26 24 22 20 18 17 16 16 15 14 13 12 11 9 9 9 10 10 10 11 10 9 9 9 8 9 13 19 24 28 30 29 26 27 32 36 42 54 67 76 81 82 80 77 77 79 83 87 88 87
100 100 101 102 101 98 92 83 74 67 59 52 46 42 38 35 33 32 31 30 29 29 28 26 24 22 20 19 19 18 17 16 15 13 11 10 9 9 10 10 11 11 11 11 11 10 9 9 10 13 19 26 31 34 36 34 29 28 33 39 45 55 68 80 87 88 86 83 82 82 84 85 85 83
101 101 101 98 93 85 76 68 62 55 49 44 40 37 35 34 33 33 32 31 29 28 26 24 23 22 21 21 20 19 18 15 13 11 10 9 9 10 10 11 11 12 12 11 11 11 9 9 13 19 27 33 36 39 41 39 32 29 35 43 51 59 68 79 87 91 92 92 91 92 93 93 92 89
100 98 94 88 79 71 64 58 52 46 42 39 38 37 36 36 35 33 31 30 28 26 25 24 24 23 23 22 20 18 15 13 11 10 9 9 10 10 11 12 13 13 13 13 12 11 10 10 15 25 35 39 40 43 46 43 35 32 39 50 60 66 72 79 85 90 95 98 99 99 99 99 96 91
94 89 83 75 68 62 56 51 46 43 42 41 40 39 38 36 34 32 30 28 27 26 25 25 26 25 24 22 19 16 14 11 10 9 10 10 11 11 12 14 15 15 14 14 13 12 11 12 19 32 43 46 47 49 50 46 39 40 49 60 66 68 75 83 86 88 93 98 99 96 94 92 90 88
Wind_Speed
17 17 18 19 19 19 18 18 18 18 19 19 20 21 22 21 21 21 21 21 21 21 20 20 19 19 19 18 18 17 17 17 17 17 17 18 19 20 20 21 21 21 21 21 21 21 21 21 21 21 21 21 21 21 21 21 21 21 21 22 22 22 22 22 23 23 23 23 23 23 23 23 24 24
17 17 18 18 18 18 18 18 18 19 19 20 21 21 22 21 21 21 21 22 22 21 20 19 19 19 19 18 18 18 18 18 18 18 18 19 20 21 21 21 22 22 22 22 22 22 22 22 22 22 22 22 22 22 22 23 23 23 24 24 24 24 24 24 25 25 25 25 25 25 25 25 25 25
16 17 17 17 18 18 18 18 19 19 20 21 21 21 21 21 21 21 21 21 21 21 20 19 19 19 18 18 18 19 18 18 18 19 19 20 21 21 21 22 22 22 22 22 22 23 23 23 24 24 24 24 24 24 24 25 25 25 26 26 27 27 27 27 27 27 27 27 27 27 27 27 27 28
17 17 17 17 17 18 18 19 20 20 21 21 22 22 22 22 23 22 21 21 21 20 20 19 19 19 19 19 19 19 19 19 19 20 20 20 21 21 22 22 22 22 23 23 24 24 24 24 25 25 25 25 25 25 26 26 27 27 28 28 29 29 29 29 29 29 29 29 30 30 30 30 30 30
18 18 18 18 18 19 20 20 21 21 22 22 22 23 23 23 22 22 21 21 20 20 20 20 19 19 19 19 19 19 20 20 21 21 21 21 21 22 22 22 22 23 23 24 24 25 25 26 26 26 26 26 26 26 27 28 28 28 29 30 30 30 30 31 31 31 31 32 32 32 32 32 32 32
19 18 18 19 20 20 21 21 22 22 22 22 22 23 22 22 21 21 21 20 19 19 19 20 20 20 20 21 20 21 21 22 22 22 22 22 23 23 23 23 23 24 25 26 26 27 27 27 27 27 27 27 27 28 28 29 29 30 30 31 31 32 32 32 33 33 33 34 34 34 34 34 34 34
19 19 19 20 21 21 21 22 22 22 22 22 22 22 22 21 21 20 20 20 19 19 19 20 21 22 22 23 22 22 23 23 23 23 23 23 24 24 24 24 25 25 26 27 28 28 29 29 29 29 28 28 28 29 29 30 30 31 32 32 33 33 33 34 34 35 35 36 36 37 37 36 36 36
20 19 20 21 21 21 22 22 22 21 21 21 22 22 22 22 21 20 20 20 20 19 20 21 22 23 23 23 23 23 24 24 24 24 24 25 24 24 25 25 26 27 27 28 29 29 29 29 29 29 29 29 29 30 30 31 31 32 33 34 34 34 35 35 36 36 37 38 38 39 39 39 38 38
20 20 21 22 22 23 23 22 21 21 21 21 22 22 23 23 22 22 21 21 21 20 20 21 22 23 24 24 24 24 25 25 25 25 25 25 25 26 26 26 27 28 28 29 30 30 30 30 30 30 30 29 29 30 30 31 32 33 34 35 36 36 37 37 38 39 39 40 40 40 40 40 40 40
22 22 22 23 24 24 24 23 22 22 21 21 22 22 22 23 23 23 22 22 21 21 21 22 23 24 24 25 24 25 25 26 26 25 26 26 26 27 27 27 27 28 29 30 30 30 31 31 31 31 30 30 30 31 32 32 33 35 36 37 38 38 39 40 40 40 41 41 42 42 42 42 42 43
22 22 23 23 24 25 24 23 23 23 22 22 22 22 23 23 23 23 22 22 22 23 23 23 24 25 25 25 25 25 25 26 26 25 26 27 27 27 27 27 28 29 30 31 30 30 31 32 32 31 31 31 32 33 34 34 35 36 37 38 39 39 40 40 41 41 42 42 42 42 43 43 44 45
22 22 23 23 24 24 23 23 23 23 23 23 22 22 22 22 22 22 22 22 23 24 25 25 25 25 25 24 24 25 25 26 26 26 27 28 28 27 28 29 30 31 31 31 31 31 32 32 32 32 32 32 33 34 34 34 35 36 37 38 39 40 41 42 42 42 42 42 42 42 43 45 47 48
22 22 22 23 24 24 23 23 23 23 24 23 21 20 20 20 21 21 21 22 23 24 25 25 24 24 24 24 24 25 26 26 27 27 28 29 30 29 29 30 32 32 32 31 30 31 32 33 33 33 33 33 35 35 35 36 37 38 38 39 40 41 42 43 43 43 43 43 44 45 47 49 50 51
22 22 22 22 23 24 23 23 22 22 22 21 19 18 19 20 21 21 21 21 21 22 23 24 24 25 25 25 25 26 27 27 28 29 29 30 31 31 30 30 32 34 33 32 31 32 33 34 34 34 34 35 36 37 37 39 39 40 40 41 42 43 43 43 43 44 45 47 48 49 51 52 53 54
23 23 23 22 23 24 24 22 21 20 21 21 21 21 21 21 22 22 22 22 22 22 23 24 25 26 26 27 27 28 28 29 30 30 30 31 31 31 30 30 32 34 35 34 33 32 34 34 35 35 36 37 38 38 40 40 41 42 42 43 44 45 45 47 47 49 50 51 52 54 54 55 55 55
23 23 23 23 23 23 23 22 20 21 23 24 25 24 23 23 24 24 24 24 24 24 24 25 26 26 27 28 29 29 30 31 31 31 32 32 32 32 31 31 32 33 34 34 33 33 34 35 35 37 38 39 38 39 40 41 41 43 43 45 46 47 47 48 50 51 52 54 55 55 54 54 54 54
23 23 23 23 23 24 24 23 23 23 24 24 24 24 24 24 25 25 26 26 26 26 26 26 27 28 28 29 30 30 31 32 32 32 32 32 31 31 31 31 32 33 34 34 34 34 36 37 37 39 41 41 41 42 43 44 45 46 47 48 50 50 50 51 52 53 54 56 57 56 54 55 55 56
24 24 24 23 22 23 24 23 23 24 24 23 23 23 24 25 26 27 28 28 28 28 28 28 29 29 30 30 30 30 30 31 31 31 31 31 31 31 31 33 34 34 34 35 35 37 38 40 41 43 44 45 46 47 49 50 51 52 52 53 54 55 56 58 59 60 60 62 63 64 64 66 66 67
24 25 25 24 23 23 24 23 23 24 25 25 24 24 25 26 26 28 29 29 30 30 30 31 31 31 30 29 29 29 29 30 31 31 31 31 31 31 32 33 34 35 36 37 38 40 41 42 44 45 47 48 50 51 52 53 54 55 56 57 57 59 60 62 63 64 64 66 67 69 71 72 73 74
24 25 25 25 26 27 27 27 27 26 26 27 26 26 25 26 26 27 28 30 31 31 32 32 31 31 29 28 27 27 28 29 31 32 33 33 33 34 35 36 37 38 39 40 41 43 44 45 47 48 49 51 52 53 54 55 56 57 58 59 60 61 63 64 65 66 67 68 69 70 71 72 73 74
24 25 27 27 28 30 30 30 28 27 27 27 28 28 28 28 29 30 32 33 33 32 31 30 29 28 27 26 27 28 29 30 31 32 33 34 35 37 38 39 40 41 42 44 45 46 48 48 49 50 51 52 54 55 56 57 58 59 60 62 63 64 65 66 67 68 69 70 71 71 71 71 72 73
22 22 23 26 28 30 30 30 29 28 29 30 31 32 33 32 33 33 33 33 32 31 29 28 27 26 27 28 30 31 32 32 33 34 35 36 38 39 40 42 43 44 46 47 48 49 50 51 51 52 53 55 57 58 59 60 61 63 64 65 66 67 68 69 70 70 71 71 71 72 72 71 72 72
26 25 25 26 27 28 29 30 30 30 31 31 32 33 33 33 32 31 30 29 29 28 28 28 28 28 29 31 32 33 34 35 36 37 38 39 40 42 43 45 46 48 48 49 50 51 52 54 55 56 57 58 59 61 62 64 65 66 67 69 70 71 71 71 71 71 71 70 70 70 70 70 70 70
29 31 32 32 32 33 33 33 33 32 31 30 30 30 30 30 29 29 29 29 29 29 29 29 30 31 32 33 35 36 38 39 40 40 41 42 43 45 46 47 48 49 50 51 53 54 55 57 58 59 60 61 63 64 66 68 69 70 71 72 73 73 73 73 72 71 70 69 68 67 66 66 66 66
30 31 33 34 35 35 35 34 34 33 31 30 30 29 28 28 29 29 29 29 29 29 29 29 30 32 34 35 37 38 40 41 42 43 44 45 46 48 49 50 51 52 53 54 55 57 58 59 61 62 64 65 67 68 70 72 73 74 75 75 75 75 74 73 71 70 68 67 65 64 63 62 62 62
32 33 34 36 36 35 35 35 35 34 33 32 31 30 28 28 29 30 30 29 30 31 32 32 33 35 37 38 40 41 42 43 44 46 47 48 49 50 51 52 53 54 55 57 58 59 61 63 64 66 67 69 71 72 73 75 76 77 77 77 76 75 74 72 70 68 66 65 63 62 61 60 60 60
36 37 38 39 38 38 37 36 35 34 34 33 31 30 29 29 30 31 32 33 34 35 36 37 38 39 40 41 42 43 44 45 46 47 48 49 50 51 52 53 55 56 57 59 61 62 64 66 68 69 71 72 74 75 76 77 77 78 77 76 75 73 72 70 68 66 65 64 63 62 61 61 61 61
39 40 39 38 37 36 35 34 34 35 34 32 30 30 30 30 32 33 35 36 37 37 38 39 40 41 42 43 43 44 45 46 47 47 48 49 50 51 53 54 56 58 60 62 63 65 67 69 71 73 74 76 77 78 78 78 78 76 74 72 71 70 68 67 65 64 63 63 62 61 61 60 60 61
35 34 34 34 34 34 34 35 35 34 33 31 30 31 32 33 35 36 37 38 38 39 40 41 42 42 43 43 43 44 44 45 46 47 48 50 51 53 55 57 58 60 62 64 66 68 70 72 74 75 77 78 78 78 77 75 73 71 69 67 66 65 63 62 60 59 59 58 58 58 58 58 58 58
32 31 33 34 36 36 36 36 34 33 32 32 33 34 36 37 37 38 38 39 39 40 41 41 42 42 42 42 42 43 44 45 47 48 50 51 53 55 57 59 61 63 65 67 69 71 72 74 75 76 76 76 74 73 71 69 67 65 64 62 60 59 59 57 56 56 56 56 56 56 56 56 56 56
32 33 34 35 35 35 34 33 33 34 34 36 36 37 37 38 38 38 39 39 39 40 40 40 40 40 41 42 42 44 45 46 48 50 52 54 56 58 60 62 64 66 67 69 70 71 72 73 73 72 71 70 68 66 65 63 61 60 59 57 56 56 56 57 56 56 56 56 56 55 55 55 54 54
32 33 33 33 33 34 35 35 36 37 38 38 38 38 37 37 38 38 38 38 38 38 38 39 39 40 41 42 43 45 46 48 50 52 54 56 58 60 62 64 65 67 69 70 71 72 72 71 70 68 66 64 63 61 60 59 57 56 56 56 56 56 56 56 56 56 55 54 53 52 52 51 50 50
34 35 35 35 36 37 38 39 39 39 39 39 38 38 38 39 39 38 38 38 38 38 38 39 40 41 42 43 45 47 48 50 52 54 56 58 60 62 63 65 66 68 69 70 70 70 69 68 66 64 62 60 59 57 57 56 56 55 56 56 56 55 55 54 53 52 51 50 48 47 46 45 44 43
37 37 38 38 38 39 39 39 39 40 40 40 40 40 40 39 38 38 38 38 38 39 39 40 41 42 43 45 47 49 50 52 54 56 58 60 61 63 64 65 67 68 68 68 67 66 64 63 61 59 58 56 55 54 54 54 55 55 55 54 53 52 51 50 49 47 46 44 42 41 39 38 37 35
37 37 38 38 39 38 39 39 40 41 41 41 41 40 39 38 38 38 38 38 38 39 40 41 42 44 46 47 49 50 52 54 56 57 59 61 62 64 65 65 66 66 65 64 63 61 59 58 57 55 54 54 53 53 52 52 53 52 51 50 49 47 46 45 44 43 42 40 38 35 33 32 30 28
38 38 39 39 39 39 40 40 41 42 42 41 40 39 38 37 37 37 37 38 39 40 41 43 44 46 47 49 50 52 53 55 57 58 60 61 62 63 63 63 63 62 61 59 58 56 55 53 52 51 51 51 51 52 52 51 49 47 45 44 44 43 43 42 41 39 37 35 33 30 28 26 25 24
39 38 39 39 40 40 41 42 42 41 40 39 38 37 37 37 37 37 38 39 40 41 43 44 46 47 49 50 52 53 55 56 58 59 60 60 61 61 60 59 58 57 55 54 52 51 50 49 48 48 48 48 49 49 48 47 45 43 41 41 40 39 38 36 35 34 32 31 30 27 24 23 23 21
39 40 40 41 42 42 42 41 40 39 38 37 37 36 36 36 37 38 39 40 42 43 45 46 47 49 50 51 53 54 56 57 58 58 59 59 59 58 56 55 53 52 51 49 48 47 46 46 46 46 46 46 45 43 41 40 40 40 39 38 37 36 35 34 33 33 32 31 30 26 23 22 22 21
42 42 42 43 42 41 40 39 38 38 37 37 36 36 37 37 38 39 40 42 43 45 46 47 48 49 51 52 54 55 56 56 57 57 57 56 55 53 51 50 49 48 47 46 45 45 45 45 45 45 44 43 41 38 36 36 37 38 37 35 34 35 35 34 33 32 31 30 28 26 23 22 22 21
43 43 42 41 40 39 38 38 37 37 37 37 37 37 38 38 39 40 42 43 44 45 46 47 49 50 51 53 53 54 54 55 55 54 53 51 49 48 47 46 46 45 44 43 43 43 43 43 43 42 40 38 35 34 34 35 36 36 36 34 33 33 33 31 30 29 28 27 25 23 22 22 23 22
42 41 40 39 38 38 37 37 36 36 36 36 37 37 38 39 40 41 42 43 43 45 46 47 48 49 50 51 51 52 52 52 50 49 47 46 45 45 44 44 43 42 41 41 41 41 41 40 40 38 36 33 32 32 33 34 35 35 34 33 32 31 30 28 27 26 25 23 22 21 21 22 23 23
40 39 38 37 37 36 36 36 36 36 36 36 36 37 38 39 39 40 41 42 42 43 44 45 45 46 47 48 49 49 48 46 45 44 43 43 43 42 42 41 40 39 39 39 39 39 38 38 36 34 32 30 30 32 33 34 34 34 33 32 32 30 28 26 24 23 22 21 20 20 20 21 22 23
39 38 37 37 36 35 35 35 35 35 35 36 36 37 37 38 38 39 40 40 40 41 41 42 43 44 45 45 45 44 43 42 41 41 41 41 40 40 39 38 38 38 37 37 37 37 36 35 34 32 30 29 30 32 34 34 34 33 31 30 30 29 26 24 22 21 19 19 18 18 18 19 20 20
38 37 37 36 35 35 35 34 34 35 35 35 36 36 37 37 38 38 38 38 38 38 39 40 41 42 42 41 40 39 39 39 40 40 39 39 38 37 37 37 36 36 36 36 36 36 35 34 32 30 30 30 31 32 34 34 34 32 30 28 28 27 25 23 22 21 20 20 19 19 19 19 19 19
36 36 35 35 34 34 34 34 34 34 35 35 35 36 36 36 36 35 35 35 36 36 37 38 38 38 38 37 37 37 37 37 37 37 37 36 35 35 35 35 34 34 34 35 35 34 34 33 31 30 30 30 31 32 32 32 32 31 29 27 26 25 24 22 22 22 21 21 21 21 21 20 19 18
Wind_Direction
255 256 256 257 258 257 256 255 253 253 253 254 256 257 257 257 257 259 262 264 266 268 269 269 268 268 272 274 273 273 273 273 274 275 278 282 283 285 285 285 284 282 281 280 280 279 278 277 277 277 276 276 276 276 276 275 275 275 276 276 277 278 279 279 279 279 279 279 279 280 280 281 281 282
255 255 255 256 256 256 255 254 254 254 254 255 255 255 255 256 257 259 261 264 267 269 270 269 267 267 270 270 270 271 272 273 275 278 282 284 285 286 286 285 284 283 282 281 280 279 278 278 277 276 275 274 273 272 272 272 272 272 273 274 275 276 276 276 276 277 277 278 279 279 280 281 281 282
253 253 253 254 254 254 254 253 254 253 253 253 253 254 255 257 259 260 262 266 268 270 270 269 267 267 268 267 267 269 271 273 276 279 280 282 283 284 284 284 284 283 282 281 280 279 278 278 277 276 274 272 271 270 269 270 270 271 271 272 273 273 274 274 275 276 277 278 278 279 280 281 282 282
251 251 251 252 252 253 253 253 252 251 250 250 251 254 257 259 260 261 263 265 268 270 269 268 267 266 265 266 268 270 273 275 276 277 277 278 280 281 282 282 283 283 283 282 280 279 278 277 277 276 274 273 271 270 269 270 271 271 272 272 273 274 274 275 276 277 277 278 279 279 280 281 282 282
248 250 252 253 252 252 252 252 251 250 249 250 254 257 260 261 262 264 265 266 268 268 268 267 267 264 263 267 271 274 276 276 275 274 274 274 275 277 278 279 280 281 280 280 279 277 276 276 275 274 273 272 272 271 271 271 272 272 272 273 274 275 275 276 276 277 277 278 279 280 280 281 282 282
246 248 251 252 251 251 251 250 250 251 252 254 257 259 260 261 262 265 266 267 267 268 268 268 267 265 265 270 274 276 276 275 274 273 273 273 274 275 276 277 278 279 279 278 277 276 276 275 274 273 272 271 270 270 270 271 271 271 272 273 273 274 274 275 276 277 278 279 280 280 280 281 281 280
243 246 248 249 250 251 251 251 252 253 255 256 257 257 258 259 262 264 265 266 266 266 267 267 267 267 269 273 275 276 275 274 273 273 272 273 274 276 277 278 278 278 278 278 278 277 277 276 275 274 273 272 271 270 271 271 271 272 272 273 274 274 275 276 278 279 280 281 281 281 280 279 279 279
241 243 245 246 248 249 251 252 253 254 254 254 254 254 256 259 263 263 262 263 263 263 263 265 266 268 270 272 273 274 273 272 272 272 272 273 274 275 276 276 276 276 276 276 277 276 276 276 275 274 274 273 272 272 273 273 273 274 275 276 276 277 277 278 279 280 282 282 282 281 279 279 278 278
241 241 242 243 246 248 250 252 253 253 252 251 251 252 255 259 262 262 261 261 261 260 260 261 262 264 266 268 269 270 270 271 271 272 273 274 275 275 274 275 276 276 276 276 276 276 276 276 275 274 274 274 274 274 274 274 275 276 277 278 278 278 279 279 280 281 282 282 281 280 279 278 277 278
239 240 241 243 245 247 250 252 253 253 251 251 251 252 255 257 258 260 260 260 261 261 260 259 258 261 264 267 268 269 269 270 271 273 274 274 274 274 274 276 276 276 276 275 275 276 276 276 275 274 274 274 274 274 274 275 276 277 278 279 279 280 281 282 283 283 284 283 281 280 279 279 279 280
240 241 242 244 246 249 251 253 255 255 251 249 249 250 252 254 256 258 260 262 265 265 264 263 263 265 267 269 269 269 270 270 272 273 274 273 273 274 276 276 275 274 274 275 276 276 276 275 275 275 275 275 275 275 276 277 278 279 279 280 281 282 283 285 286 286 286 285 283 281 280 280 282 283
242 244 245 246 248 250 252 252 254 255 252 248 246 247 250 254 258 261 264 266 268 269 269 268 269 269 269 269 269 269 271 272 274 274 275 276 276 276 277 276 276 275 275 276 277 276 276 275 275 276 276 276 276 276 277 278 278 278 279 281 283 284 286 288 289 288 287 286 284 281 281 281 282 282
245 246 247 248 249 251 253 253 255 256 252 246 243 247 254 261 264 266 267 268 269 270 272 272 272 271 270 270 269 269 270 271 272 272 273 274 275 275 275 275 275 275 275 275 275 275 275 276 276 276 276 277 277 278 279 279 280 281 282 284 286 287 289 289 288 288 288 286 284 283 283 283 284 283
249 248 248 248 249 252 254 255 257 255 248 241 242 254 262 265 266 266 265 266 266 268 270 271 272 271 270 270 270 270 270 269 269 269 269 269 270 271 271 271 272 274 274 274 273 274 275 276 276 277 277 278 279 281 282 283 284 285 285 287 288 289 289 288 287 288 288 286 284 283 283 283 283 282
252 250 249 248 249 253 257 258 257 252 245 244 252 262 263 261 261 261 260 260 260 262 264 266 269 270 271 272 272 272 272 271 271 271 271 272 272 272 273 272 272 274 274 274 274 274 274 275 276 276 277 279 281 283 284 285 285 286 287 289 290 289 288 288 288 289 288 287 285 283 282 282 282 282
253 250 249 249 249 253 257 259 258 253 250 253 258 262 260 258 258 259 259 260 260 261 262 263 265 267 269 272 273 274 274 274 275 276 276 278 278 279 279 277 276 277 278 279 278 277 276 277 278 279 280 281 282 282 282 283 284 286 287 287 286 285 286 287 287 287 288 287 285 284 285 285 286 286
253 250 248 249 252 255 257 258 261 261 261 262 263 264 263 262 263 262 262 262 263 263 264 264 264 266 268 271 273 276 277 278 278 278 278 279 280 280 281 281 281 282 283 284 284 283 282 284 285 284 284 285 283 281 281 281 282 282 281 281 280 280 281 281 281 282 283 284 283 283 283 283 283 283
252 250 248 248 251 255 256 257 260 262 265 266 267 267 267 266 267 266 266 266 266 266 267 267 268 269 270 272 274 277 277 276 276 276 277 278 279 280 281 282 282 282 283 283 284 284 284 285 286 286 285 285 284 283 283 283 282 282 281 281 280 279 279 279 280 280 280 279 279 279 279 278 279 279
251 250 249 246 244 247 251 254 255 258 261 264 265 265 266 268 268 267 268 269 270 270 270 270 271 271 272 273 274 274 273 272 272 273 275 276 278 280 281 281 281 281 281 282 282 282 282 283 283 283 283 283 283 283 283 283 283 283 283 283 282 281 281 281 281 281 280 279 278 278 278 278 278 279
253 251 252 251 247 247 249 252 255 259 263 264 264 264 265 266 265 264 265 267 269 270 271 272 273 272 271 271 272 273 274 275 274 272 272 273 275 278 279 280 280 281 282 282 282 282 282 283 283 283 284 284 284 284 284 284 284 284 284 284 284 284 283 283 283 282 282 281 281 280 280 279 279 279
260 258 254 254 253 252 253 256 260 265 269 270 270 268 266 265 265 265 266 268 269 270 270 271 272 271 272 273 274 275 276 277 277 275 275 275 277 278 280 280 282 283 284 284 285 285 285 286 287 287 287 288 287 287 287 287 287 287 287 287 286 286 286 286 285 285 285 284 284 283 282 281 280 279
252 255 253 254 255 255 257 260 263 268 273 275 276 275 273 271 269 269 270 271 271 272 271 270 270 271 274 276 277 278 279 279 279 279 279 279 280 281 282 284 285 286 287 288 288 289 290 291 291 291 291 290 290 290 290 290 290 290 290 289 289 289 288 288 287 287 286 286 285 285 284 283 282 281
238 241 248 256 260 260 260 260 263 268 272 274 275 275 274 273 271 271 272 272 272 271 270 270 271 273 274 274 274 275 276 277 279 280 281 282 284 285 287 288 289 290 290 291 292 293 293 293 293 293 292 292 292 292 292 292 291 291 291 291 290 290 289 289 288 288 287 286 286 285 285 285 284 283
244 245 249 255 259 262 263 264 267 270 271 269 268 268 268 269 270 271 272 273 274 274 274 273 274 273 272 270 270 271 273 276 281 284 286 287 288 289 290 291 292 292 293 294 294 294 294 293 293 293 293 292 292 292 292 292 292 292 292 292 291 291 291 290 290 290 289 289 288 287 286 285 284 283
251 253 255 256 257 259 262 265 268 269 268 266 265 266 267 269 270 271 272 273 274 275 274 272 270 269 269 271 273 275 278 282 285 287 288 290 290 291 292 292 293 293 294 294 294 294 294 294 294 294 294 293 293 293 293 293 293 293 293 292 292 292 292 292 292 292 292 291 290 289 288 286 285 284
248 252 255 257 259 261 263 265 264 263 264 266 268 270 272 272 273 274 274 273 272 272 272 272 272 273 275 277 279 281 283 284 286 287 288 289 290 291 292 292 293 293 294 294 294 294 294 294 295 295 295 295 295 295 295 294 294 294 293 293 293 294 294 294 294 294 293 293 292 291 290 289 288 286
246 251 254 257 259 260 260 258 257 259 264 268 270 272 272 272 272 272 271 271 271 272 274 275 276 277 278 280 281 282 283 284 286 287 288 289 290 291 292 293 293 294 294 295 295 295 295 295 296 296 296 296 296 295 295 295 294 295 295 295 295 296 296 296 296 295 294 293 293 292 291 290 288 287
246 251 253 254 253 252 251 252 256 261 265 268 269 270 270 270 269 269 270 272 273 275 277 278 278 279 280 281 282 282 283 284 286 287 288 289 290 291 292 293 294 294 295 295 296 296 296 296 296 296 296 295 295 295 295 295 296 296 297 297 297 296 296 296 295 295 294 293 292 292 291 290 289 287
244 245 246 247 248 249 252 256 260 263 266 267 269 270 270 270 271 272 274 276 278 279 280 280 281 281 281 281 282 283 284 286 287 288 290 291 292 292 293 294 295 296 296 297 297 297 297 297 297 296 296 296 296 296 296 297 297 297 297 297 297 297 296 296 295 295 294 294 293 293 292 291 290 289
241 243 246 250 253 256 258 260 262 264 266 268 270 271 271 272 274 277 279 280 280 280 279 279 279 280 281 282 283 285 286 288 289 290 291 292 293 295 296 296 297 297 297 298 298 298 298 298 298 298 298 298 298 298 298 298 298 298 298 298 298 297 297 296 296 295 294 294 293 293 292 291 291 290
245 247 249 252 255 258 260 261 263 266 269 271 272 272 273 275 277 278 279 278 278 277 277 278 279 281 283 284 285 287 288 289 290 292 293 294 295 296 297 298 298 298 298 298 299 299 299 299 299 299 299 299 299 299 299 299 299 299 299 298 298 298 297 297 296 296 295 294 293 293 292 291 290 290
253 253 253 253 254 257 260 263 266 269 270 272 272 274 275 276 276 276 276 276 277 278 279 280 282 283 284 285 287 288 290 291 293 294 295 296 297 297 298 298 299 299 299 299 299 299 299 299 299 299 300 300 300 300 300 300 300 300 299 299 299 298 298 297 296 296 295 294 294 293 292 292 291 290
254 254 255 256 258 261 264 266 268 270 271 272 273 273 273 273 273 274 276 277 278 279 281 282 283 285 286 287 289 291 292 294 295 296 296 297 298 298 299 299 299 300 300 300 300 300 300 300 300 300 300 301 301 301 302 301 301 301 300 300 299 299 298 297 297 296 296 296 295 295 294 294 293 292
254 257 259 261 263 265 267 268 269 271 272 273 272 271 270 271 273 275 276 278 279 280 282 283 285 286 288 290 292 293 294 295 296 297 298 298 299 299 300 300 300 300 301 301 301 301 302 302 302 302 302 302 302 302 302 301 301 301 300 300 300 300 299 298 298 297 297 297 297 297 297 297 296 295
261 264 265 266 266 266 266 267 268 269 270 269 268 268 269 271 273 275 276 278 280 281 283 285 287 289 291 292 293 294 295 297 297 298 299 300 300 301 301 301 302 302 302 302 302 302 302 302 303 303 303 303 303 302 302 301 301 301 301 301 301 300 299 298 298 297 297 298 299 299 298 298 298 299
269 270 269 268 267 266 266 266 267 267 266 266 267 269 271 273 274 276 277 279 281 283 285 287 289 290 291 293 294 295 296 298 299 300 300 301 302 302 303 303 303 303 302 302 302 302 302 303 303 304 304 304 304 303 302 302 302 302 304 304 303 302 300 299 298 298 298 300 301 298 296 296 297 299
273 273 272 270 268 267 266 265 266 266 267 268 269 271 273 274 276 277 279 281 283 285 287 288 289 291 292 293 295 296 298 299 300 301 302 303 303 303 303 303 302 302 301 301 302 303 304 304 304 304 304 304 303 303 304 305 305 306 307 307 306 306 305 303 301 299 300 302 302 297 292 291 294 295
274 272 270 267 265 264 263 264 266 267 269 271 272 273 275 276 277 279 281 283 285 287 288 289 290 291 293 294 296 297 299 300 301 302 303 303 304 303 303 302 302 302 302 303 304 305 305 305 305 305 304 304 304 304 306 309 310 310 310 310 310 310 308 306 303 301 300 301 301 296 289 288 293 295
269 266 263 261 261 262 264 266 268 269 271 272 273 274 276 278 280 282 284 285 287 288 289 290 291 293 294 296 297 299 300 302 303 304 304 304 304 303 303 303 303 304 305 306 307 307 307 306 306 306 305 305 305 306 309 311 312 312 312 313 313 312 310 308 305 302 299 298 298 294 287 286 291 296
264 262 261 261 263 264 266 267 269 270 271 272 274 276 278 280 282 284 286 287 289 290 291 292 293 295 297 299 300 302 303 304 305 305 305 305 305 304 304 305 306 307 307 308 308 308 308 308 307 307 306 306 307 310 312 314 314 313 313 314 315 314 311 309 307 304 302 299 296 291 285 283 288 293
263 263 263 264 265 266 267 268 269 270 272 274 276 279 281 282 284 286 288 290 291 292 294 295 297 299 301 302 304 305 305 305 306 306 306 306 306 306 306 307 308 308 309 309 309 309 309 309 308 307 307 307 309 312 315 317 317 316 314 314 315 315 313 312 310 308 306 303 298 292 286 284 286 289
263 263 264 264 265 266 267 268 270 272 274 277 279 280 282 284 287 289 290 292 293 295 297 299 301 302 304 305 305 306 306 307 307 308 308 307 307 307 308 308 309 310 310 310 311 311 311 310 309 308 307 307 309 312 315 317 319 318 315 313 314 315 314 315 315 313 310 307 303 298 292 289 289 288
262 262 263 264 265 266 268 270 272 275 276 278 280 282 284 287 288 290 291 293 295 297 299 301 303 304 305 306 307 307 308 309 309 309 309 309 309 309 309 309 310 311 312 312 313 313 314 312 310 307 306 306 308 311 314 317 319 319 317 314 313 314 314 315 316 316 315 313 310 307 303 299 297 294
261 263 264 265 267 269 271 273 274 276 278 280 282 284 285 287 288 290 292 294 297 299 301 303 304 305 306 307 308 310 311 311 312 311 311 311 310 310 311 311 312 313 314 315 316 316 316 315 311 307 305 305 307 310 314 317 320 321 319 317 315 314 314 314 314 315 316 315 314 312 309 304 301 299
262 263 265 267 268 270 272 274 275 277 279 280 282 283 285 287 289 291 293 295 297 300 302 303 305 306 307 308 310 311 312 313 313 313 313 313 312 312 312 313 314 315 317 318 319 319 318 316 312 308 305 304 306 308 312 317 321 320 319 320 319 317 316 315 315 314 315 315 314 313 310 306 302 300